Weather in selo Khelyulya

Russia / Republic of Karelia     61°44′24″N   30°41′29″E
temp.,
°C
wind,
m/s
gust,
m/s
humid.,
%
clouds,
%
prec.,
mm/h
press.,
hPa
HPBL,
m
14 june, mon
mon1400:00+11nw269490 0.0 1009161
03:00+9nw22964 0.0 101142
06:00+10wnw2584100 0.0 1012136
09:00+15wnw3553100 0.0 1014654
12:00+17w4639100 0.0 10141366
15:00+17sw3441100 0.0 10141268
18:00+18ssw35455 0.0 10131443
21:00+12s4970100 0.0 1012208
15 june, tue
tue1500:00+11ssw41262100 0.0 1011356
03:00+10s41468100 0.0 1009324
06:00+10s5147795 0.0 1006321
09:00+13s61470100 0.0 1004693
12:00+15sw71273100 0.1 10041134
15:00+16wsw41054100 0.3 10051137
18:00+16w585073 0.0 10061574
21:00+15wsw4956100 0.0 1007574
16 june, wed
wed1600:00+14w411558 0.0 1008633
03:00+10w310700 0.0 1010307
06:00+11w4117198 0.0 1012512
09:00+14w510503 0.0 10131232
12:00+16w583466 0.0 10141501
15:00+17wnw5833100 0.0 10151510
18:00+18w483375 0.0 10151465
21:00+14w225277 0.0 101623
17 june, thu
thu1700:00+10nw116141 0.0 101710
03:00+9nw11645 0.0 101810
06:00+12nw11655 0.0 101969
09:00+16sw23535 0.0 1020650
12:00+18sw344620 0.0 10211187
15:00+20s344522 0.0 10211115
18:00+16s476083 0.0 1021372
21:00+16ssw386724 0.0 1020170
18 june, fri
fri1800:00+12sw25755 0.0 102176
03:00+11sw24810 0.0 102166
06:00+13sw26736 0.0 1022171
09:00+18sw365069 0.0 1021618
12:00+21sw574310 0.0 10201196
15:00+22sw48375 0.0 10201437
18:00+23sw48403 0.0 10191422
21:00+19sw410580 0.0 1018402